Location: Izdebno
(52.6670°N, 16.2170°E)
Time: 11:10:55
(UTC+01:00)

Transit 2A - Pass Details

Date: 03 February 2023
Orbit: 591 x 964 km, 66.7° (Epoch: 21 March)

Event Time Altitude Azimuth Distance (km) Brightness Sun altitude
Rises 22:37:17 0° 312° (NW) 3,338 9.9 -49.5°
Enters shadow 22:39:10 - 320° (NW) 2,738 9.4 -49.7°
Reaches altitude 10° 22:40:05 10° 326° (NW) 2,469 - -49.7°
Maximum altitude 22:44:49 25° 21° (NNE) 1,713 - -50.1°
Drops below altitude 10° 22:49:49 10° 75° (ENE) 2,639 - -50.5°
Sets 22:52:55 0° 88° (E) 3,617 - -50.8°
